Atlantic - Newfoundland: Past 24 Hour Conditions

 

St. John's Int'l Airport

09:30 PM NDT 30 August 2014
This table is a summary of hourly weather conditions for the past 24 hours.
Date / Time
(NDT)
Wind(knots) Conditions Visibility(km) Pressure(kPa) Air tempC) Relative humidity(%) Dew pointC)
30 August 2014
21:30 WSW 21 gust 27 Partly Cloudy 24 102.0 14 77 10
20:30 WSW 20 gust 27 Mostly Cloudy 24 102.0 14 77 10
19:30 WSW 17 gust 26 Partly Cloudy 24 102.0 15 63 8
18:30 WSW 20 gust 28 Mostly Cloudy 24 102.0 16 57 8
17:30 WSW 16 gust 24 Mostly Cloudy 24 102.0 18 56 9
16:30 WSW 13 gust 23 Partly Cloudy 24 102.0 19 53 10
15:30 W 12 gust 21 Partly Cloudy 24 102.0 19 55 10
14:30 W 18 Mainly Sunny 24 102.0 19 54 9
13:30 W 18 gust 23 Mainly Sunny 24 102.0 18 54 8
12:30 W 16 gust 25 Partly Cloudy 24 102.0 17 58 9
11:30 WSW 16 gust 24 Mainly Sunny 24 102.0 16 56 7
10:30 WSW 14 Mainly Sunny 24 102.1 14 59 6
9:30 WSW 10 gust 16 Mainly Sunny 24 102.0 12 67 6
8:30 W 13 Sunny 24 102.0 9 81 6
7:30 W 10 Mainly Sunny 24 102.0 7 89 6
6:30 W 13 Sunny 24 101.9 6 93 5
5:30 WNW 13 Clear 24 101.9 6 94 5
4:30 WNW 10 Clear 24 101.8 6 96 5
3:30 WNW 8 Clear 24 101.7 6 95 5
2:30 NNW 10 Partly Cloudy 24 101.6 7 89 6
1:30 NNW 11 gust 17 Mainly Clear 24 101.6 8 86 5
0:30 NNW 11 gust 17 Partly Cloudy 24 101.5 8 83 5
29 August 2014
23:30 NNW 11 Partly Cloudy 24 101.5 9 82 6
22:30 NNW 14 Cloudy 24 101.4 9 76 5
21:30 NNW 17 gust 26 Cloudy 24 101.3 9 73 5
 
Map of Atlantic - Newfoundland marine weather areas Southwestern Grand Banks - 44138 Banquereau - 44139 Tail of the Bank - 44140 Nickerson Bank - 44251 Northeast Burgeo Bank - 44255 Blanc-Sablon Airport Cap Whittle Chevery Natashquan Airport Heath Point Miscou Island Grand Étang Ingonish Beach North Mountain St.Paul Island J.A. Douglas McCurdy Sydney Airport Charlottetown Airport East Point North Cape Argentia Bonavista Burgeo Cape Race Corner Brook Daniel's Harbour Englee Ferolle Point La Scie Port aux Basques Rocky Harbour Sagona Island St. Anthony Airport St. John's Int'l Airport St. Lawrence Stephenville Airport Twillingate Winterland Wreckhouse Cartwright Airport Mary's Harbour Grates Cove Pool's Island Marticot Island Long Pond Îles de la Madeleine Airport
Legend: buoyBuoy land stationLand Station